Weather in Belorechensky

Russia / Voronezh Oblast     50°31′33″N   39°38′57″E
В апреле 2022 года жителям России запретили посещать сайт meteo.paraplan.net по решению Генеральной прокуратуры. Аудитория сайта уменьшилась в 10 раз. Владельцы сайта не видят смысла в поддержке погодного сервера в таких условиях. Сайт будет закрыт в октябре.
temp.,
°C
wind,
m/s
gust,
m/s
humid.,
%
clouds,
%
prec.,
mm/h
press.,
hPa
HPBL,
m
5 october, wed
wed500:00+10sw3781100 0.0 1017184
03:00+8sw4108540 0.0 1018371
06:00+7ssw4108818 0.0 1019284
09:00+10sw611745 0.0 1019633
12:00+12wsw8116893 0.1 10201227
15:00+12w7964100 0.2 10201473
18:00+10w487298 0.4 1021474
21:00+9w587645 0.4 1022536
6 october, thu
thu600:00+7w49885 0.1 1023311
03:00+6w499511 0.1 1024249
06:00+5w38945 0.0 1024193
09:00+9w477864 0.0 1024397
12:00+13w576672 0.0 10241132
15:00+14w5764100 0.0 10231137
18:00+13wsw3671100 0.0 1023197
21:00+11wsw487798 0.0 1024283
7 october, fri
fri700:00+9wsw37865 0.0 1024149
03:00+9sw37895 0.0 1023144
06:00+8wsw38922 0.0 1023148
09:00+12w587769 0.0 1023324
12:00+16nw566351 0.0 1023777
15:00+18nnw56594 0.0 10231182
18:00+13n34730 0.0 102557
21:00+10n35880 0.0 1026102
8 october, sat
sat800:00+9nne22880 0.0 102729
03:00+8ne22890 0.0 102712
06:00+7ne22903 0.0 102811
09:00+11e23750 0.0 1028235
12:00+15ese23540 0.0 1027708
15:00+17ese23453 0.0 1025962
18:00+13ese22590 0.0 102412
21:00+11ese22645 0.0 102420
9 october, sun
sun900:00+10se22655 0.0 102427
03:00+9se22715 0.0 102314
06:00+8se228128 0.0 102318
09:00+12se466950 0.0 1022262
12:00+17sse565213 0.0 1020867
15:00+19sse454453 0.0 10181405
18:00+15sse225592 0.0 101821
21:00+14s1155100 0.0 101810